Tracking 31027 objects as of 19-Jul-2025
HD Live streaming from Space Station
objects crossing your sky now

STARLINK-4695

Track STARLINK-4695 now!
10-day predictions
STARLINK-4695 is classified as:


NORAD ID: 53718
Int'l Code: 2022-107U
Perigee: 546.2 km
Apogee: 547.6 km
Inclination: 53.2 °
Period: 95.4 minutes
Semi major axis: 6917 km
RCS: Unknown
Launch date: September 5, 2022
Source: United States (US)
Launch site: AIR FORCE EASTERN TEST RANGE (AFETR)
Your satellite tracking list
SL-14 DEB
Track 1 satellite(s)




NASA's NSSDC Master Catalog

Two Line Element Set (TLE):
1 53718U 22107U   25199.35876374 -.00000456  00000-0 -10585-4 0  9995
2 53718  53.2159 226.3381 0001074  79.9663 280.1450 15.08834047159025
Source of the keplerian elements: AFSPC